[[{"header":{"parameterUnit":"m.s-1","parameterCategory":2,"la1":30.2991,"la2":30.254,"lo1":-89.0895,"lo2":-89.0444,"dy":0.0017,"dx":0.0017,"nx":28,"ny":28,"refTime":"2024-04-28T21:00:00:Z","depth":"0","parameterNumber":2,"parameterNumberName":"U-component_of_CURRENTS"},"data":[0,0,0,0,0,0,0,0,0,0,0,0,0,0,0,0,0,0,0,0,0,0,0,0,0,0,0,0,0,0,0,0,0,0,0,0,0,0,0,0,0,0,0,0,0,0,0,0,0,0,0,0,0,0,0,0,0,0,0.2838,0.2838,0,0.2809,0.2808,0.2808,0.277,0.277,0.2769,0.2769,0.274,0.2739,0.2739,0,0,0,0,0,0,0,0,0,0,0,0,0,0.29,0.2899,0.2838,0.2838,0.2838,0.2809,0.2808,0.2808,0.277,0.277,0.2769,0.2769,0.274,0.2739,0.2739,0,0,0,0,0,0,0,0,0,0,0,0,0,0.287,0.2898,0.2838,0.2818,0.2816,0.2809,0.2808,0.2807,0.277,0.277,0.2769,0.2769,0.274,0.2739,0.2739,0.2744,0,0,0.2736,0.2736,0,0,0,0,0,0,0,0,0.2871,0.2867,0.2821,0.2819,0.2817,0.2795,0.282,0.2787,0.277,0.2784,0.2769,0.2769,0.2761,0.2758,0.2749,0.2743,0.2742,0.2736,0.2736,0.2736,0.2735,0,0,0,0,0,0,0,0.2873,0.2868,0.2823,0.2821,0.2819,0.2824,0.2818,0.2813,0.2773,0.2783,0.2781,0.2783,0.2759,0.275,0.2749,0.2741,0.2736,0.2736,0.2735,0.2735,0.2752,0.2753,0,0,0,0,0,0,0.2881,0.287,0.2824,0.2823,0.2847,0.2823,0.2817,0.28,0.2773,0.277,0.2783,0.2781,0.2752,0.2749,0.2747,0.2767,0.2736,0.2735,0.2734,0.2751,0.2752,0.2753,0,0,0,0,0,0,0.2882,0.2877,0.2826,0.2849,0.2844,0.2823,0.2805,0.28,0.2796,0.2774,0.2769,0.2784,0.2751,0.2748,0.2747,0.2765,0.2735,0.2734,0.275,0.2751,0.2753,0.2796,0,0,0,0,0,0,0.2884,0.2877,0.2871,0.2849,0.2843,0.2826,0.2805,0.28,0.2799,0.2796,0.2774,0.277,0.2751,0.2748,0.2746,0.2763,0.2733,0.2749,0.2751,0.2752,0.2794,0.2799,0.2803,0,0,0,0,0,0.2886,0.2875,0.287,0.2866,0.2833,0.2827,0.2824,0.2806,0.28,0.28,0.2785,0.2771,0.2757,0.2748,0.2745,0.2763,0.2748,0.275,0.2752,0.2791,0.2798,0.2803,0,0,0,0,0,0,0.2897,0.287,0.2864,0.2845,0.2842,0.2822,0.2822,0.2814,0.2803,0.2801,0.2778,0.2774,0.2782,0.2768,0.2758,0.2774,0.2752,0.2754,0.2783,0.2789,0.2793,0.28,0.2733,0,0,0,0,0,0.2899,0.2883,0.2869,0.2856,0.2856,0.2844,0.2841,0.2832,0.2819,0.2813,0.28,0.279,0.2789,0.2784,0.2779,0.2784,0.2795,0.2796,0.28,0.2805,0.2809,0.2847,0.2856,0.276,0.276,0.2759,0,0,0.2898,0.2885,0.2874,0.2859,0.2853,0.2854,0.2839,0.2839,0.2839,0.2814,0.2811,0.2808,0.2795,0.2801,0.2804,0.279,0.2839,0.2807,0.2811,0.2813,0.285,0.2859,0.2868,0.2761,0.2761,0.276,0,0,0.2896,0.2881,0.2872,0.2873,0.2873,0.2867,0.2872,0.2861,0.2855,0.2857,0.2844,0.2853,0.284,0.2839,0.2836,0.2867,0.2867,0.2866,0.2891,0.2928,0.2936,0.2943,0.2977,0.2987,0.2864,0.2864,0.2864,0,0.29,0.2878,0.2872,0.2874,0.2874,0.2876,0.2876,0.2877,0.2867,0.2874,0.2861,0.2871,0.286,0.288,0.2886,0.2879,0.2898,0.2869,0.2935,0.2942,0.2949,0.2982,0.2992,0.2867,0.2866,0.2866,0.2866,0,0.2889,0.2883,0.2883,0.2879,0.2886,0.2885,0.2892,0.2904,0.2903,0.2904,0.2927,0.2918,0.2927,0.2927,0.2911,0.2956,0.2955,0.2941,0.2921,0.2962,0.2993,0.3004,0.287,0.2869,0.2868,0.2868,0,0,0.2854,0.287,0.2867,0.2869,0.2885,0.2882,0.2909,0.2923,0.2939,0.2949,0.2971,0.2978,0.2987,0.2985,0.298,0.3003,0.3067,0.2992,0.2993,0.3028,0.3154,0.3161,0.3173,0.3068,0.307,0.3071,0.3159,0,0.2842,0.2846,0.2856,0.2859,0.286,0.2886,0.2905,0.2929,0.2949,0.2975,0.2997,0.3011,0.3005,0.3011,0.3043,0.3059,0.3095,0.3045,0.3107,0.3109,0.3112,0.3185,0.3125,0.32,0.3169,0.3171,0.3172,0,0.2813,0.2821,0.2823,0.2845,0.2847,0.2854,0.2889,0.291,0.2968,0.2988,0.3035,0.305,0.31,0.3078,0.3158,0.3128,0.315,0.316,0.3164,0.3162,0.3136,0.3153,0.3219,0.3203,0.3188,0.3186,0.3185,0,0.2769,0.2788,0.2786,0.2792,0.2825,0.2835,0.2857,0.2912,0.2941,0.3004,0.304,0.3097,0.3133,0.3176,0.3223,0.3192,0.3309,0.3266,0.3298,0.3298,0.3255,0.3249,0.3314,0.3329,0.3329,0.3328,0.3328,0,0.2734,0.2728,0.2764,0.2759,0.2762,0.2802,0.2825,0.2863,0.2935,0.2976,0.3044,0.3094,0.316,0.3236,0.3257,0.3333,0.3349,0.3326,0.3332,0.3269,0.3264,0.3251,0.3195,0.3332,0.3331,0.333,0.333,0,0.2676,0.2701,0.2697,0.2729,0.2738,0.2741,0.2803,0.2824,0.2908,0.2972,0.2997,0.3115,0.3216,0.3292,0.3371,0.3384,0.3356,0.3455,0.3382,0.3377,0.3362,0.3308,0.3141,0.3051,0.3494,0.3495,0.3496,0,0.2644,0.2639,0.2663,0.266,0.2668,0.2693,0.2707,0.2791,0.2828,0.298,0.3002,0.3141,0.3217,0.3372,0.3438,0.3515,0.339,0.3484,0.3408,0.3381,0.3326,0.3103,0.3023,0.3369,0.3369,0.3369,0.3368,0,0.2587,0.2597,0.2597,0.2594,0.2597,0.2609,0.2646,0.2675,0.2784,0.2852,0.2953,0.3034,0.3237,0.3318,0.3458,0.348,0.3328,0.3479,0.347,0.3259,0.2999,0.291,0.3291,0.3366,0.3366,0.3366,0.3366,0.3366,0.2544,0.2527,0.2532,0.2509,0.2514,0.2502,0.2472,0.254,0.2586,0.2656,0.283,0.2914,0.3182,0.3379,0.3404,0.3462,0.3311,0.3392,0.334,0.3124,0.2997,0.338,0.3447,0.3448,0.3448,0.3449,0.3449,0,0.2474,0.2458,0.2445,0.2405,0.2352,0.2392,0.2397,0.2352,0.2349,0.2514,0.2595,0.2847,0.3024,0.3224,0.343,0.3367,0.3154,0.3279,0.2976,0.2913,0.3314,0.3277,0.3286,0.3286,0.3286,0.3286,0.3286,0.3286,0.2441,0.2384,0.2358,0.2238,0.2206,0.2092,0.2059,0.2031,0.2109,0.2198,0.2328,0.2491,0.2865,0.323,0.3337,0.3263,0.302,0.2857,0.2808,0.3165,0.3171,0.3177,0.3135,0.3114,0.3114,0.2307,0.2302,0.2297]},{"header":{"parameterUnit":"m.s-1","parameterCategory":2,"la1":30.2991,"la2":30.254,"lo1":-89.0895,"lo2":-89.0444,"dy":0.0017,"dx":0.0017,"nx":28,"ny":28,"refTime":"2024-04-28T21:00:00:Z","depth":"0","parameterNumber":3,"parameterNumberName":"V-component_of_CURRENTS"},"data":[0,0,0,0,0,0,0,0,0,0,0,0,0,0,0,0,0,0,0,0,0,0,0,0,0,0,0,0,0,0,0,0,0,0,0,0,0,0,0,0,0,0,0,0,0,0,0,0,0,0,0,0,0,0,0,0,0,0,0.0046,0.0045,0,-0.0041,-0.0042,-0.0043,-0.0082,-0.0082,-0.0082,-0.0082,-0.0182,-0.0185,-0.0187,0,0,0,0,0,0,0,0,0,0,0,0,0,0.0126,0.0125,0.0046,0.0045,0.0044,-0.0041,-0.0042,-0.0043,-0.0082,-0.0082,-0.0082,-0.0082,-0.0181,-0.0184,-0.0188,0,0,0,0,0,0,0,0,0,0,0,0,0,0.0071,0.0125,0.0046,0.0014,0.001,-0.0041,-0.0042,-0.0044,-0.0082,-0.0082,-0.0082,-0.0082,-0.018,-0.0184,-0.0188,-0.0216,0,0,-0.0201,-0.0202,0,0,0,0,0,0,0,0,0.0074,0.0068,0.002,0.0016,0.0012,-0.0051,-0.0051,-0.0102,-0.0082,-0.0047,-0.0082,-0.0082,-0.014,-0.0147,-0.0163,-0.022,-0.0225,-0.0201,-0.0204,-0.0205,-0.0206,0,0,0,0,0,0,0,0.0078,0.0071,0.0012,0.0019,0.0014,-0.0014,-0.0021,-0.0061,-0.0093,-0.005,-0.0053,-0.0063,-0.0142,-0.0159,-0.0166,-0.0226,-0.0201,-0.0205,-0.0207,-0.0209,-0.03,-0.03,0,0,0,0,0,0,0.0091,0.0075,0.0014,0.0009,0.0044,-0.0015,-0.0024,-0.0031,-0.0092,-0.0102,-0.0063,-0.0065,-0.0152,-0.0161,-0.017,-0.0186,-0.0205,-0.0209,-0.0211,-0.03,-0.03,-0.0299,0,0,0,0,0,0,0.0093,0.0086,0.0018,0.004,0.0029,-0.0017,-0.0025,-0.0033,-0.0044,-0.0102,-0.0112,-0.0066,-0.0152,-0.0164,-0.0196,-0.0191,-0.0211,-0.0215,-0.03,-0.03,-0.03,-0.0231,0,0,0,0,0,0,0.0096,0.0088,0.0087,0.0041,0.0028,-0.0002,-0.0025,-0.0034,-0.0051,-0.0054,-0.0108,-0.0118,-0.0153,-0.0189,-0.02,-0.0197,-0.0218,-0.03,-0.03,-0.03,-0.0233,-0.0229,-0.0225,0,0,0,0,0,0.0099,0.0099,0.0088,0.008,0.0029,-0.0002,-0.001,-0.0043,-0.0051,-0.0053,-0.0088,-0.0116,-0.0196,-0.0192,-0.0205,-0.0203,-0.03,-0.03,-0.03,-0.0235,-0.023,-0.0225,0,0,0,0,0,0,0.0132,0.0094,0.008,0.0069,0.0041,-0.0008,-0.0016,-0.0036,-0.0066,-0.0067,-0.0117,-0.0129,-0.0155,-0.0189,-0.0184,-0.0229,-0.0252,-0.0254,-0.0199,-0.0194,-0.019,-0.0164,-0.0221,0,0,0,0,0,0.014,0.0132,0.0091,0.0083,0.0072,0.0031,0.0015,-0.0005,-0.004,-0.0053,-0.0091,-0.0131,-0.0167,-0.0186,-0.0224,-0.025,-0.0275,-0.0257,-0.0252,-0.0248,-0.0237,-0.0271,-0.0269,-0.0299,-0.0299,-0.0299,0,0,0.0149,0.0128,0.0123,0.009,0.0066,0.0056,0.0022,0.0004,-0.0002,-0.006,-0.0077,-0.0118,-0.017,-0.0197,-0.0212,-0.0223,-0.0253,-0.0248,-0.0244,-0.0235,-0.0271,-0.0268,-0.0265,-0.0299,-0.0299,-0.0299,0,0,0.017,0.0149,0.0152,0.0134,0.0104,0.0078,0.0078,0.0036,0.0021,-0.0005,-0.0045,-0.0076,-0.0136,-0.0167,-0.0192,-0.0187,-0.0228,-0.0204,-0.0162,-0.0196,-0.0193,-0.0191,-0.0214,-0.0214,-0.0202,-0.0202,-0.0202,0,0.0186,0.0184,0.0149,0.0149,0.0139,0.0095,0.01,0.0075,0.0029,0.0022,0.0001,-0.0074,-0.0119,-0.0146,-0.0146,-0.0175,-0.0199,-0.0176,-0.0189,-0.0187,-0.0186,-0.021,-0.0212,-0.0198,-0.0199,-0.0199,-0.0199,0,0.021,0.0209,0.0211,0.0198,0.0182,0.0179,0.0143,0.0133,0.0108,0.0079,0.005,-0.0012,-0.0053,-0.0077,-0.0112,-0.0128,-0.0148,-0.0177,-0.0196,-0.0179,-0.0205,-0.0208,-0.0194,-0.0195,-0.0196,-0.0197,0,0,0.0249,0.0233,0.0235,0.0241,0.0211,0.0203,0.0198,0.0181,0.019,0.0136,0.0137,0.0068,0.0036,0.0007,-0.0043,-0.0076,-0.0095,-0.0119,-0.0122,-0.013,-0.0161,-0.0163,-0.0167,-0.0128,-0.0128,-0.0128,-0.018,0,0.0284,0.0303,0.0279,0.0297,0.0305,0.0269,0.0273,0.0251,0.0225,0.0215,0.0152,0.0128,0.0067,0.0051,0.0009,-0.0067,-0.01,-0.0077,-0.0186,-0.0189,-0.0184,-0.0169,-0.011,-0.015,-0.0183,-0.0183,-0.0184,0,0.0322,0.0329,0.0354,0.0358,0.0359,0.0361,0.0365,0.0363,0.0335,0.0316,0.0279,0.0225,0.0173,0.0117,0.0005,0.0022,-0.0059,-0.0123,-0.0127,-0.0152,-0.0196,-0.0176,-0.0155,-0.028,-0.0189,-0.0188,-0.0188,0,0.0375,0.0384,0.0409,0.0408,0.0403,0.0413,0.0413,0.0398,0.0413,0.0383,0.039,0.0308,0.0281,0.0168,0.0037,0.0019,-0.0084,-0.0129,-0.0206,-0.0207,-0.0189,-0.0188,-0.0291,-0.0206,-0.0206,-0.0206,-0.0206,0,0.0425,0.0445,0.0439,0.0452,0.0495,0.0469,0.0511,0.0504,0.0505,0.0538,0.0451,0.046,0.0292,0.0209,0.0073,-0.0061,-0.0058,-0.0188,-0.0219,-0.0164,-0.016,-0.0296,-0.0376,-0.0208,-0.0207,-0.0207,-0.0207,0,0.0479,0.0474,0.0506,0.0512,0.0521,0.0554,0.0582,0.0614,0.0608,0.065,0.0647,0.0576,0.0478,0.031,0.0135,0.0003,-0.021,-0.0192,-0.0109,-0.0129,-0.0324,-0.0402,-0.0536,-0.0629,-0.0286,-0.0286,-0.0286,0,0.0507,0.0529,0.0557,0.0582,0.0587,0.0628,0.0663,0.067,0.0708,0.073,0.076,0.0684,0.0656,0.0405,0.017,-0.0052,-0.0206,-0.0171,-0.0202,-0.0316,-0.0427,-0.0484,-0.0558,-0.0152,-0.0151,-0.0151,-0.015,0,0.0558,0.0567,0.0591,0.0649,0.0689,0.074,0.0788,0.0836,0.086,0.0901,0.0943,0.0927,0.0722,0.0542,0.0237,0.0063,-0.0251,-0.0165,-0.0306,-0.0344,-0.0389,-0.0498,-0.0137,-0.0144,-0.0145,-0.0145,-0.0145,-0.0146,0.0596,0.0625,0.0656,0.0712,0.0765,0.0836,0.0883,0.0945,0.1025,0.1104,0.109,0.1126,0.0893,0.0501,0.0216,-0.0195,-0.0226,-0.0299,-0.0388,-0.0437,-0.0518,-0.0138,-0.0169,-0.017,-0.017,-0.0171,-0.0171,0,0.0635,0.0662,0.0712,0.0775,0.0835,0.0858,0.0953,0.1002,0.11,0.123,0.128,0.1263,0.0924,0.0539,0.001,-0.0326,-0.0492,-0.0509,-0.0575,-0.0649,-0.0315,-0.03,-0.0332,-0.0332,-0.0332,-0.0332,-0.0331,-0.0331,0.0654,0.0698,0.0718,0.0812,0.0863,0.0937,0.099,0.1077,0.1182,0.1347,0.1454,0.1514,0.1366,0.0407,-0.031,-0.0543,-0.0817,-0.0826,-0.1015,-0.0772,-0.0759,-0.0747,-0.0751,-0.0877,-0.0878,-0.1286,-0.129,-0.1293]}],[{"header":{"parameterUnit":"m.s-1","parameterCategory":2,"la1":30.2991,"la2":30.254,"lo1":-89.0895,"lo2":-89.0444,"dy":0.0017,"dx":0.0017,"nx":28,"ny":28,"refTime":"2024-04-28T21:00:00:Z","depth":"2","parameterNumber":2,"parameterNumberName":"U-component_of_CURRENTS"},"data":[0,0,0,0,0,0,0,0,0,0,0,0,0,0,0,0,0,0,0,0,0,0,0,0,0,0,0,0,0,0,0,0,0,0,0,0,0,0,0,0,0,0,0,0,0,0,0,0,0,0,0,0,0,0,0,0,0,0,0.2855,0.2855,0,0.2827,0.2827,0.2826,0.279,0.279,0.2789,0.2789,0.2762,0.2761,0.2761,0,0,0,0,0,0,0,0,0,0,0,0,0,0.2915,0.2914,0.2855,0.2855,0.2855,0.2827,0.2827,0.2826,0.279,0.279,0.2789,0.2789,0.2762,0.2761,0.2761,0,0,0,0,0,0,0,0,0,0,0,0,0,0.2885,0.2913,0.2855,0.2836,0.2834,0.2827,0.2827,0.2826,0.279,0.279,0.2789,0.2789,0.2762,0.2761,0.2761,0.2766,0,0,0.2759,0.2758,0,0,0,0,0,0,0,0,0.2887,0.2883,0.2839,0.2837,0.2835,0.2814,0.2838,0.2807,0.279,0.2804,0.2789,0.2788,0.2782,0.2779,0.2771,0.2765,0.2764,0.2759,0.2758,0.2758,0.2758,0,0,0,0,0,0,0,0.2889,0.2884,0.2841,0.2839,0.2837,0.2842,0.2836,0.2832,0.2793,0.2802,0.28,0.2802,0.278,0.2772,0.277,0.2764,0.2759,0.2758,0.2758,0.2758,0.2776,0.2777,0,0,0,0,0,0,0.2897,0.2886,0.2842,0.284,0.2864,0.2841,0.2835,0.2819,0.2793,0.279,0.2803,0.2801,0.2773,0.2771,0.2769,0.2789,0.2758,0.2757,0.2757,0.2775,0.2776,0.2777,0,0,0,0,0,0,0.2898,0.2892,0.2843,0.2866,0.2861,0.2841,0.2823,0.2819,0.2815,0.2794,0.279,0.2804,0.2772,0.277,0.2769,0.2787,0.2757,0.2757,0.2774,0.2776,0.2777,0.282,0,0,0,0,0,0,0.2899,0.2892,0.2887,0.2866,0.286,0.2844,0.2824,0.2819,0.2818,0.2815,0.2794,0.2791,0.2772,0.277,0.2768,0.2786,0.2756,0.2773,0.2775,0.2776,0.2817,0.2823,0.2827,0,0,0,0,0,0.2901,0.2891,0.2887,0.2882,0.2851,0.2845,0.2842,0.2825,0.2819,0.2819,0.2805,0.2791,0.278,0.277,0.2768,0.2786,0.2772,0.2774,0.2776,0.2815,0.2822,0.2827,0,0,0,0,0,0,0.2912,0.2886,0.2881,0.2862,0.286,0.284,0.284,0.2833,0.2822,0.2821,0.2799,0.2795,0.2804,0.279,0.278,0.2797,0.2776,0.2777,0.2806,0.2812,0.2816,0.2823,0.2756,0,0,0,0,0,0.2914,0.2899,0.2885,0.2873,0.2874,0.2862,0.2859,0.285,0.2839,0.2833,0.282,0.2811,0.281,0.2807,0.2802,0.2808,0.2818,0.282,0.2824,0.2829,0.2833,0.287,0.2879,0.2784,0.2784,0.2784,0,0,0.2914,0.2901,0.2891,0.2876,0.2871,0.2872,0.2858,0.2857,0.2858,0.2834,0.2831,0.2829,0.2817,0.2824,0.2827,0.2813,0.2863,0.2831,0.2835,0.2837,0.2873,0.2883,0.2891,0.2785,0.2785,0.2785,0,0,0.2912,0.2898,0.2889,0.2891,0.2891,0.2885,0.289,0.288,0.2875,0.2877,0.2865,0.2875,0.2863,0.2862,0.286,0.289,0.289,0.289,0.2915,0.2951,0.2959,0.2966,0.2999,0.3009,0.2888,0.2888,0.2888,0,0.2916,0.2895,0.2889,0.2892,0.2892,0.2894,0.2895,0.2896,0.2887,0.2894,0.2881,0.2893,0.2882,0.2902,0.2909,0.2902,0.2921,0.2893,0.2958,0.2965,0.2972,0.3004,0.3014,0.289,0.289,0.289,0.289,0,0.2906,0.29,0.29,0.2898,0.2904,0.2904,0.2911,0.2923,0.2923,0.2924,0.2948,0.294,0.2949,0.295,0.2934,0.2979,0.2977,0.2964,0.2944,0.2985,0.3015,0.3025,0.2894,0.2893,0.2892,0.2892,0,0,0.2871,0.2888,0.2885,0.2888,0.2904,0.2901,0.2929,0.2943,0.2959,0.2969,0.2991,0.2999,0.3009,0.3008,0.3002,0.3026,0.3089,0.3015,0.3016,0.3049,0.3174,0.3179,0.319,0.309,0.3092,0.3093,0.3179,0,0.286,0.2864,0.2875,0.2879,0.288,0.2906,0.2925,0.2949,0.2969,0.2996,0.3018,0.3032,0.3027,0.3033,0.3065,0.3081,0.3116,0.3067,0.3128,0.313,0.3131,0.3203,0.2879,0.2929,0.3189,0.319,0.3192,0,0.2831,0.284,0.2843,0.2865,0.2867,0.2875,0.291,0.2931,0.2989,0.3009,0.3056,0.3071,0.3121,0.31,0.3178,0.3149,0.317,0.3181,0.3185,0.318,0.3154,0.2929,0.2937,0.3208,0.3207,0.3206,0.3205,0,0.2789,0.2808,0.2807,0.2813,0.2846,0.2856,0.2879,0.2933,0.2962,0.3025,0.3061,0.3118,0.3154,0.3196,0.3242,0.3212,0.3327,0.3285,0.3315,0.3315,0.3046,0.3021,0.3347,0.3347,0.3347,0.3346,0.3346,0,0.2754,0.2749,0.2785,0.278,0.2783,0.2824,0.2847,0.2885,0.2957,0.2997,0.3065,0.3115,0.3181,0.3255,0.3276,0.3349,0.3367,0.3342,0.3347,0.3055,0.303,0.3269,0.3259,0.335,0.3349,0.3348,0.3348,0,0.2696,0.2721,0.2719,0.2751,0.276,0.2763,0.2825,0.2846,0.293,0.2994,0.3019,0.3135,0.3234,0.3309,0.3387,0.3399,0.3451,0.3468,0.3131,0.3097,0.34,0.3391,0.3501,0.3502,0.3503,0.3504,0.3505,0,0.2665,0.266,0.2685,0.2683,0.2691,0.2716,0.273,0.2814,0.2851,0.3001,0.3023,0.316,0.3226,0.3378,0.3377,0.3434,0.351,0.3217,0.3106,0.3427,0.3421,0.341,0.34,0.2756,0.275,0.2746,0.2742,0,0.2608,0.2618,0.262,0.2617,0.262,0.2633,0.267,0.2698,0.2807,0.2867,0.2966,0.3037,0.3175,0.3098,0.3209,0.3195,0.3181,0.3133,0.3542,0.2795,0.2739,0.2729,0.274,0.2702,0.2706,0.2709,0.2711,0.2713,0.2566,0.255,0.2554,0.2532,0.2538,0.2526,0.2497,0.2553,0.2591,0.2634,0.2796,0.2809,0.2875,0.2873,0.2816,0.2789,0.3018,0.2894,0.29,0.2913,0.284,0.2792,0.275,0.2754,0.2757,0.2761,0.2763,0,0.2488,0.2481,0.2468,0.2429,0.2375,0.2418,0.2423,0.238,0.2355,0.2448,0.2482,0.2338,0.2295,0.2389,0.2264,0.2315,0.2198,0.225,0.2047,0.2092,0.213,0.2008,0.1702,0.1699,0.1695,0.1693,0,0,0.2454,0.2394,0.2369,0.2255,0.2229,0.213,0.2097,0.2067,0.21,0.2067,0.2048,0.2167,0.2321,0.1969,0.1938,0.1803,0.1922,0.1727,0.258,0.2384,0.2418,0.2512,0.238,0,0,0,0,0]},{"header":{"parameterUnit":"m.s-1","parameterCategory":2,"la1":30.2991,"la2":30.254,"lo1":-89.0895,"lo2":-89.0444,"dy":0.0017,"dx":0.0017,"nx":28,"ny":28,"refTime":"2024-04-28T21:00:00:Z","depth":"2","parameterNumber":3,"parameterNumberName":"V-component_of_CURRENTS"},"data":[0,0,0,0,0,0,0,0,0,0,0,0,0,0,0,0,0,0,0,0,0,0,0,0,0,0,0,0,0,0,0,0,0,0,0,0,0,0,0,0,0,0,0,0,0,0,0,0,0,0,0,0,0,0,0,0,0,0,0.0023,0.0022,0,-0.0064,-0.0065,-0.0066,-0.0105,-0.0105,-0.0104,-0.0104,-0.0204,-0.0207,-0.021,0,0,0,0,0,0,0,0,0,0,0,0,0,0.0102,0.0101,0.0023,0.0022,0.002,-0.0064,-0.0065,-0.0066,-0.0105,-0.0105,-0.0104,-0.0104,-0.0203,-0.0207,-0.021,0,0,0,0,0,0,0,0,0,0,0,0,0,0.0047,0.0101,0.0023,-0.0009,-0.0013,-0.0063,-0.0065,-0.0066,-0.0105,-0.0105,-0.0104,-0.0104,-0.0202,-0.0206,-0.021,-0.0238,0,0,-0.0223,-0.0225,0,0,0,0,0,0,0,0,0.005,0.0044,-0.0003,-0.0007,-0.0011,-0.0073,-0.0074,-0.0125,-0.0105,-0.007,-0.0104,-0.0104,-0.0162,-0.0169,-0.0186,-0.0243,-0.0247,-0.0223,-0.0226,-0.0228,-0.0229,0,0,0,0,0,0,0,0.0054,0.0047,-0.0011,-0.0004,-0.0009,-0.0037,-0.0044,-0.0084,-0.0116,-0.0073,-0.0076,-0.0086,-0.0164,-0.0182,-0.0188,-0.0249,-0.0223,-0.0227,-0.0229,-0.0231,-0.0322,-0.0322,0,0,0,0,0,0,0.0067,0.0051,-0.0009,-0.0014,0.002,-0.0038,-0.0046,-0.0053,-0.0115,-0.0124,-0.0086,-0.0087,-0.0175,-0.0183,-0.0192,-0.0208,-0.0228,-0.0231,-0.0234,-0.0322,-0.0322,-0.0322,0,0,0,0,0,0,0.0069,0.0063,-0.0005,0.0016,0.0006,-0.0039,-0.0047,-0.0055,-0.0067,-0.0125,-0.0134,-0.0088,-0.0175,-0.0186,-0.0218,-0.0213,-0.0233,-0.0237,-0.0322,-0.0322,-0.0322,-0.0254,0,0,0,0,0,0,0.0072,0.0064,0.0063,0.0017,0.0005,-0.0025,-0.0048,-0.0057,-0.0074,-0.0076,-0.013,-0.014,-0.0176,-0.0211,-0.0222,-0.0219,-0.024,-0.0322,-0.0322,-0.0322,-0.0256,-0.0252,-0.0247,0,0,0,0,0,0.0075,0.0075,0.0064,0.0057,0.0006,-0.0025,-0.0033,-0.0066,-0.0073,-0.0076,-0.0111,-0.0138,-0.0218,-0.0215,-0.0227,-0.0225,-0.0322,-0.0322,-0.0322,-0.0258,-0.0252,-0.0248,0,0,0,0,0,0,0.0108,0.007,0.0057,0.0045,0.0017,-0.0031,-0.0039,-0.0059,-0.0089,-0.0089,-0.0139,-0.0151,-0.0178,-0.0212,-0.0206,-0.0252,-0.0274,-0.0277,-0.0222,-0.0217,-0.0212,-0.0187,-0.0244,0,0,0,0,0,0.0116,0.0108,0.0067,0.0059,0.0048,0.0008,-0.0009,-0.0028,-0.0063,-0.0075,-0.0114,-0.0154,-0.0189,-0.0209,-0.0247,-0.0272,-0.0297,-0.028,-0.0275,-0.0271,-0.026,-0.0294,-0.0291,-0.0322,-0.0322,-0.0322,0,0,0.0125,0.0104,0.0098,0.0066,0.0042,0.0032,-0.0001,-0.0019,-0.0025,-0.0082,-0.01,-0.0141,-0.0193,-0.0219,-0.0234,-0.0245,-0.0276,-0.0271,-0.0267,-0.0258,-0.0294,-0.0291,-0.0288,-0.0322,-0.0322,-0.0322,0,0,0.0145,0.0124,0.0127,0.0109,0.0079,0.0054,0.0054,0.0012,-0.0003,-0.0028,-0.0068,-0.0099,-0.0158,-0.019,-0.0215,-0.021,-0.0251,-0.0226,-0.0185,-0.0219,-0.0216,-0.0215,-0.0237,-0.0238,-0.0225,-0.0224,-0.0224,0,0.0161,0.0158,0.0123,0.0124,0.0114,0.007,0.0075,0.0051,0.0005,-0.0002,-0.0023,-0.0097,-0.0142,-0.0169,-0.0169,-0.0198,-0.0222,-0.0199,-0.0212,-0.021,-0.021,-0.0233,-0.0235,-0.0221,-0.0221,-0.0222,-0.0222,0,0.0184,0.0182,0.0184,0.0172,0.0156,0.0153,0.0117,0.0107,0.0082,0.0055,0.0025,-0.0036,-0.0077,-0.0101,-0.0135,-0.0152,-0.0171,-0.02,-0.0219,-0.0202,-0.0229,-0.0231,-0.0216,-0.0218,-0.0219,-0.0219,0,0,0.0222,0.0205,0.0208,0.0214,0.0184,0.0176,0.0171,0.0154,0.0163,0.011,0.0111,0.0042,0.0011,-0.0018,-0.0068,-0.01,-0.0119,-0.0143,-0.0146,-0.0154,-0.0186,-0.0187,-0.0191,-0.0152,-0.0152,-0.0152,-0.0204,0,0.0256,0.0274,0.0251,0.0268,0.0275,0.0241,0.0245,0.0223,0.0197,0.0187,0.0125,0.0101,0.0041,0.0026,-0.0016,-0.0091,-0.0124,-0.0101,-0.021,-0.0213,-0.0209,-0.0194,-0.021,-0.0257,-0.0207,-0.0208,-0.0208,0,0.0293,0.03,0.0325,0.0328,0.0329,0.0331,0.0335,0.0333,0.0305,0.0287,0.025,0.0197,0.0145,0.009,-0.0021,-0.0004,-0.0084,-0.0147,-0.0152,-0.0176,-0.022,-0.027,-0.0265,-0.0213,-0.0213,-0.0212,-0.0212,0,0.0346,0.0354,0.0379,0.0378,0.0372,0.0383,0.0383,0.0367,0.0382,0.0353,0.036,0.0278,0.0252,0.014,0.001,-0.0007,-0.011,-0.0154,-0.0231,-0.0232,-0.0278,-0.0283,-0.0231,-0.0231,-0.0231,-0.0231,-0.0231,0,0.0395,0.0415,0.0409,0.0421,0.0464,0.0438,0.048,0.0472,0.0473,0.0506,0.042,0.0429,0.0263,0.0181,0.0046,-0.0088,-0.0084,-0.0213,-0.0244,-0.0255,-0.0256,-0.0247,-0.0248,-0.0233,-0.0232,-0.0232,-0.0232,0,0.0448,0.0443,0.0475,0.0481,0.049,0.0522,0.055,0.0582,0.0576,0.0617,0.0614,0.0544,0.0446,0.028,0.0106,-0.0025,-0.0166,-0.0218,-0.0211,-0.0239,-0.0278,-0.0275,-0.0311,-0.0311,-0.0311,-0.0312,-0.0312,0,0.0477,0.0498,0.0526,0.0551,0.0556,0.0597,0.0632,0.0638,0.0675,0.0696,0.0726,0.065,0.0613,0.0364,0.011,-0.0118,-0.0141,-0.0276,-0.0317,-0.0259,-0.0285,-0.0281,-0.0278,-0.0357,-0.0357,-0.0358,-0.0358,0,0.0528,0.0537,0.056,0.0618,0.0658,0.0708,0.0756,0.0803,0.0826,0.0855,0.0896,0.0871,0.0649,0.0405,0.0092,-0.007,-0.0243,-0.0292,-0.024,-0.0324,-0.0304,-0.0329,-0.0324,-0.0362,-0.0362,-0.0362,-0.0361,-0.0361,0.0565,0.0595,0.0625,0.0681,0.0734,0.0803,0.085,0.0863,0.0925,0.0923,0.0965,0.0884,0.0683,0.0239,0.0015,-0.0255,-0.0252,-0.0372,-0.037,-0.0368,-0.0353,-0.0334,-0.0396,-0.0396,-0.0395,-0.0395,-0.0395,0,0.0587,0.0631,0.0682,0.0744,0.0778,0.0827,0.0919,0.0898,0.0919,0.092,0.0902,0.0698,0.0466,0.0242,-0.0166,-0.0373,-0.0402,-0.0434,-0.0432,-0.0428,-0.0423,-0.0411,-0.047,-0.047,-0.0471,-0.0471,0,0,0.0602,0.0635,0.0655,0.0733,0.08,0.0823,0.0875,0.0844,0.0817,0.0764,0.072,0.067,0.0479,0.0179,-0.0083,-0.0288,-0.032,-0.0334,-0.0262,-0.0229,-0.0222,-0.0383,-0.0359,0,0,0,0,0]}],[{"header":{"parameterUnit":"m.s-1","parameterCategory":2,"la1":30.2991,"la2":30.254,"lo1":-89.0895,"lo2":-89.0444,"dy":0.0017,"dx":0.0017,"nx":28,"ny":28,"refTime":"2024-04-28T21:00:00:Z","depth":"4","parameterNumber":2,"parameterNumberName":"U-component_of_CURRENTS"},"data":[0,0,0,0,0,0,0,0,0,0,0,0,0,0,0,0,0,0,0,0,0,0,0,0,0,0,0,0,0,0,0,0,0,0,0,0,0,0,0,0,0,0,0,0,0,0,0,0,0,0,0,0,0,0,0,0,0,0,0.187,0.187,0,0.1899,0.1899,0.1899,0.1931,0.1932,0.1933,0.1933,0.1961,0.1961,0.1961,0,0,0,0,0,0,0,0,0,0,0,0,0,0.1802,0.1803,0.187,0.187,0.1871,0.1899,0.1899,0.1899,0.1931,0.1932,0.1933,0.1934,0.1961,0.1961,0.1961,0,0,0,0,0,0,0,0,0,0,0,0,0,0.1828,0.1803,0.1869,0.1893,0.1896,0.1899,0.1899,0.1899,0.1931,0.1932,0.1933,0.1934,0.1961,0.1961,0.1961,0.1937,0,0,0.1961,0.1961,0,0,0,0,0,0,0,0,0.1826,0.183,0.1889,0.1891,0.1894,0.1916,0.1885,0.1913,0.193,0.1914,0.1933,0.1935,0.1947,0.1948,0.1946,0.1939,0.194,0.1961,0.1961,0.1961,0.1961,0,0,0,0,0,0,0,0.1825,0.1829,0.1877,0.189,0.1893,0.1888,0.1893,0.189,0.1921,0.1915,0.1919,0.1927,0.1948,0.1946,0.1947,0.194,0.1961,0.1961,0.1961,0.1961,0.2036,0.2037,0,0,0,0,0,0,0.1829,0.1827,0.1877,0.1879,0.1867,0.1889,0.1895,0.1905,0.1921,0.1926,0.1926,0.1928,0.1946,0.1947,0.1948,0.2024,0.1961,0.1961,0.1961,0.2034,0.2036,0.2038,0,0,0,0,0,0,0.1827,0.1833,0.1876,0.1856,0.1862,0.189,0.19,0.1905,0.1942,0.193,0.1934,0.1964,0.1947,0.1948,0.1985,0.2022,0.1961,0.1961,0.2031,0.2034,0.2037,0.2109,0,0,0,0,0,0,0.1825,0.1832,0.1858,0.1857,0.1863,0.1903,0.19,0.1904,0.1945,0.1949,0.1963,0.1964,0.1948,0.1986,0.1985,0.202,0.1961,0.2029,0.2033,0.2036,0.2104,0.2114,0.2123,0,0,0,0,0,0.1823,0.1845,0.1859,0.1866,0.1892,0.1904,0.1908,0.1928,0.1946,0.1966,0.1984,0.1966,0.2009,0.1987,0.1986,0.2022,0.2027,0.2032,0.2036,0.21,0.2112,0.2123,0,0,0,0,0,0,0.1827,0.185,0.1866,0.1895,0.1914,0.1912,0.1939,0.1951,0.1979,0.1997,0.1985,0.1988,0.2035,0.2021,0.1997,0.2057,0.2017,0.2022,0.2067,0.2078,0.2087,0.2085,0.1961,0,0,0,0,0,0.184,0.1869,0.1883,0.1912,0.1925,0.1941,0.1957,0.1971,0.1988,0.2004,0.2015,0.203,0.2044,0.2058,0.2064,0.2092,0.2087,0.2118,0.2128,0.2135,0.2135,0.2167,0.2178,0.2053,0.2053,0.2053,0,0,0.1851,0.1869,0.1887,0.1917,0.1934,0.1954,0.1954,0.199,0.2014,0.2,0.2051,0.2064,0.2061,0.2096,0.2116,0.2094,0.2172,0.2141,0.2147,0.2143,0.2172,0.2184,0.2195,0.2056,0.2055,0.2055,0,0,0.1868,0.1904,0.1929,0.1948,0.1985,0.1992,0.2013,0.2037,0.2062,0.2102,0.2106,0.2145,0.2163,0.217,0.2173,0.2237,0.2221,0.225,0.2292,0.2323,0.2333,0.2342,0.2361,0.237,0.2253,0.2253,0.2253,0,0.1884,0.1913,0.1938,0.1961,0.1983,0.2015,0.2039,0.2062,0.2098,0.2123,0.2133,0.219,0.2194,0.2231,0.2259,0.2257,0.227,0.2247,0.2334,0.2343,0.2351,0.2367,0.2377,0.2257,0.2257,0.2256,0.2256,0,0.1901,0.194,0.1958,0.1999,0.2025,0.2056,0.2085,0.2128,0.2168,0.2187,0.2253,0.2267,0.23,0.2315,0.2306,0.2369,0.236,0.2343,0.2303,0.2368,0.2381,0.239,0.2263,0.2261,0.226,0.2259,0,0,0.1886,0.1958,0.1967,0.1992,0.2051,0.2064,0.2123,0.2169,0.2209,0.2263,0.2312,0.2358,0.2383,0.2389,0.2396,0.2426,0.2499,0.2417,0.2417,0.2429,0.2571,0.2417,0.2411,0.2505,0.2506,0.2508,0.2561,0,0.1895,0.1941,0.1979,0.2028,0.205,0.2105,0.2147,0.22,0.2251,0.2307,0.2351,0.2399,0.2405,0.2435,0.2472,0.2492,0.2525,0.2485,0.2511,0.2512,0.2361,0.2417,0.2514,0.2568,0.257,0.2571,0.2572,0,0.1885,0.1922,0.1972,0.2039,0.2056,0.2096,0.2173,0.2218,0.2304,0.2347,0.2417,0.2449,0.2518,0.2505,0.2583,0.2564,0.2579,0.2587,0.2589,0.2421,0.2373,0.2488,0.2588,0.2587,0.2586,0.2585,0.2584,0,0.1834,0.191,0.1953,0.1977,0.2058,0.2103,0.2156,0.224,0.2286,0.2384,0.2431,0.2508,0.2559,0.26,0.2639,0.2623,0.2708,0.2679,0.2553,0.2542,0.2633,0.2622,0.2729,0.2728,0.2728,0.2728,0.2728,0,0.1802,0.1838,0.194,0.1959,0.2016,0.2084,0.2157,0.2219,0.2314,0.2364,0.2456,0.2496,0.2591,0.2647,0.2665,0.2638,0.2735,0.2563,0.2546,0.2663,0.2656,0.2639,0.2628,0.273,0.273,0.2729,0.2729,0,0.1731,0.1802,0.1854,0.1957,0.1994,0.2036,0.2156,0.2195,0.2304,0.2374,0.2411,0.2518,0.258,0.2652,0.2716,0.2652,0.2649,0.2616,0.2749,0.2738,0.2454,0.2447,0.2462,0.2457,0.2452,0.2449,0.2446,0,0.1695,0.172,0.184,0.1876,0.1932,0.2013,0.2061,0.2179,0.2217,0.2361,0.2372,0.2481,0.2537,0.2497,0.2591,0.2607,0.2581,0.256,0.2489,0.2446,0.2428,0.2427,0.2425,0.2439,0.2438,0.2437,0.2436,0,0.1628,0.1691,0.1738,0.1813,0.1875,0.1929,0.2009,0.2022,0.2145,0.2264,0.2263,0.2285,0.2349,0.2386,0.2424,0.2433,0.2557,0.2514,0.2522,0.2455,0.2419,0.2405,0.2408,0.2421,0.2423,0.2425,0.2425,0,0.1587,0.1603,0.168,0.1727,0.1802,0.1814,0.1871,0.19,0.195,0.2091,0.209,0.2203,0.2314,0.2298,0.2335,0.2331,0.2288,0.2202,0.2225,0.2242,0.2148,0.2067,0.1948,0,0,0,0,0,0.1533,0.1538,0.1583,0.1623,0.1688,0.1731,0.1816,0.1872,0.1988,0.1927,0.1997,0.2037,0.2064,0.2129,0.2081,0.2266,0.2321,0.2203,0.2239,0.2339,0.2356,0.2266,0,0,0,0,0,0,0.1497,0.154,0.1546,0.1525,0.1532,0.1585,0.1635,0.1714,0.1682,0.1805,0.1826,0.1919,0.1982,0.2071,0.2044,0.2067,0.2048,0.2281,0.2276,0.233,0.2345,0.2359,0.2272,0,0,0,0,0]},{"header":{"parameterUnit":"m.s-1","parameterCategory":2,"la1":30.2991,"la2":30.254,"lo1":-89.0895,"lo2":-89.0444,"dy":0.0017,"dx":0.0017,"nx":28,"ny":28,"refTime":"2024-04-28T21:00:00:Z","depth":"4","parameterNumber":3,"parameterNumberName":"V-component_of_CURRENTS"},"data":[0,0,0,0,0,0,0,0,0,0,0,0,0,0,0,0,0,0,0,0,0,0,0,0,0,0,0,0,0,0,0,0,0,0,0,0,0,0,0,0,0,0,0,0,0,0,0,0,0,0,0,0,0,0,0,0,0,0,-0.0032,-0.0033,0,-0.0086,-0.0086,-0.0087,-0.0116,-0.0116,-0.0116,-0.0116,-0.0198,-0.02,-0.0202,0,0,0,0,0,0,0,0,0,0,0,0,0,0.0005,0.0005,-0.0032,-0.0033,-0.0033,-0.0086,-0.0087,-0.0087,-0.0116,-0.0116,-0.0116,-0.0116,-0.0197,-0.0199,-0.0202,0,0,0,0,0,0,0,0,0,0,0,0,0,-0.0026,0.0005,-0.0032,-0.0054,-0.0056,-0.0086,-0.0087,-0.0088,-0.0116,-0.0116,-0.0116,-0.0116,-0.0196,-0.0199,-0.0202,-0.0222,0,0,-0.0212,-0.0214,0,0,0,0,0,0,0,0,-0.0025,-0.0028,-0.005,-0.0052,-0.0055,-0.0094,-0.0103,-0.0134,-0.0116,-0.0094,-0.0116,-0.0116,-0.0165,-0.0171,-0.0182,-0.0226,-0.023,-0.0213,-0.0215,-0.0216,-0.0217,0,0,0,0,0,0,0,-0.0022,-0.0026,-0.0054,-0.005,-0.0054,-0.0074,-0.0078,-0.0109,-0.013,-0.0096,-0.0098,-0.0103,-0.0167,-0.0178,-0.0184,-0.0231,-0.0213,-0.0215,-0.0217,-0.0219,-0.0286,-0.0286,0,0,0,0,0,0,-0.0012,-0.0024,-0.0053,-0.0056,-0.0039,-0.0075,-0.0079,-0.0082,-0.0129,-0.0136,-0.0103,-0.0104,-0.0173,-0.018,-0.0187,-0.0203,-0.0216,-0.0219,-0.0221,-0.0287,-0.0286,-0.0286,0,0,0,0,0,0,-0.0011,-0.0014,-0.005,-0.0041,-0.0046,-0.0075,-0.0078,-0.0083,-0.0094,-0.0134,-0.0141,-0.0108,-0.0173,-0.0182,-0.0206,-0.0206,-0.022,-0.0223,-0.0287,-0.0286,-0.0286,-0.0241,0,0,0,0,0,0,-0.001,-0.0013,-0.0013,-0.004,-0.0047,-0.0065,-0.0078,-0.0084,-0.0096,-0.0098,-0.0141,-0.0148,-0.0174,-0.0201,-0.021,-0.0211,-0.0226,-0.0287,-0.0287,-0.0286,-0.0243,-0.0239,-0.0237,0,0,0,0,0,-0.0008,-0.0009,-0.0013,-0.0016,-0.0045,-0.0065,-0.0071,-0.0092,-0.0096,-0.0101,-0.0124,-0.0147,-0.0206,-0.0204,-0.0214,-0.0216,-0.0287,-0.0287,-0.0286,-0.0244,-0.024,-0.0237,0,0,0,0,0,0,0.0004,-0.0013,-0.0017,-0.0024,-0.004,-0.007,-0.0077,-0.0089,-0.0111,-0.0111,-0.0147,-0.0156,-0.0177,-0.0202,-0.0199,-0.0234,-0.025,-0.0251,-0.0214,-0.0211,-0.0208,-0.0192,-0.0229,0,0,0,0,0,0.0009,0.0006,-0.0015,-0.002,-0.0025,-0.0049,-0.006,-0.0072,-0.0094,-0.0104,-0.0131,-0.0159,-0.0184,-0.02,-0.0227,-0.0249,-0.027,-0.0256,-0.0253,-0.025,-0.0244,-0.0272,-0.0271,-0.0285,-0.0285,-0.0285,0,0,0.0012,0.0003,-0.0,-0.0017,-0.0031,-0.0037,-0.0056,-0.0068,-0.0071,-0.011,-0.0123,-0.015,-0.0187,-0.0207,-0.0219,-0.0228,-0.0257,-0.025,-0.0247,-0.0242,-0.0271,-0.027,-0.0269,-0.0285,-0.0285,-0.0285,0,0,0.0017,0.001,0.0009,-0.0,-0.0015,-0.0029,-0.0029,-0.0053,-0.0062,-0.0078,-0.0103,-0.0125,-0.0168,-0.0189,-0.0207,-0.0203,-0.0238,-0.0215,-0.019,-0.0217,-0.0216,-0.0216,-0.0239,-0.024,-0.0215,-0.0215,-0.0215,0,0.0021,0.002,0.0005,0.0004,0.0,-0.0021,-0.002,-0.0032,-0.006,-0.0063,-0.0076,-0.0125,-0.0158,-0.0178,-0.0176,-0.0196,-0.0216,-0.0201,-0.0212,-0.0212,-0.0212,-0.0236,-0.0239,-0.0213,-0.0213,-0.0213,-0.0213,0,0.0026,0.0027,0.0026,0.0022,0.0015,0.0012,-0.0002,-0.0006,-0.0017,-0.0032,-0.005,-0.009,-0.0117,-0.0134,-0.0156,-0.0171,-0.0186,-0.0203,-0.022,-0.0208,-0.0234,-0.0238,-0.021,-0.021,-0.0211,-0.0212,0,0,0.0031,0.003,0.0031,0.0039,0.0027,0.0025,0.0026,0.002,0.0029,-0.0003,-0.0,-0.0046,-0.0063,-0.0083,-0.0115,-0.0141,-0.0161,-0.0169,-0.0171,-0.0187,-0.0219,-0.0218,-0.0222,-0.0181,-0.0182,-0.0182,-0.0236,0,0.004,0.0051,0.0044,0.0058,0.0064,0.0055,0.0062,0.0056,0.0046,0.0043,0.0005,-0.0008,-0.0045,-0.0054,-0.0086,-0.0138,-0.0168,-0.0145,-0.0232,-0.0234,-0.0231,-0.0225,-0.0183,-0.0239,-0.024,-0.024,-0.0241,0,0.0047,0.0056,0.0072,0.0091,0.0093,0.0099,0.0115,0.0119,0.011,0.0104,0.0082,0.0052,0.0016,-0.0019,-0.0102,-0.0085,-0.0147,-0.0192,-0.0196,-0.0212,-0.024,-0.0255,-0.0247,-0.0247,-0.0246,-0.0246,-0.0245,0,0.0063,0.0077,0.0095,0.0099,0.0112,0.0124,0.0135,0.0137,0.0155,0.0145,0.0153,0.01,0.0084,0.0002,-0.009,-0.0098,-0.0183,-0.0209,-0.0269,-0.027,-0.0274,-0.0275,-0.0274,-0.0274,-0.0274,-0.0273,-0.0273,0,0.0076,0.0091,0.0108,0.0117,0.0153,0.0154,0.0188,0.0195,0.0209,0.0236,0.019,0.0194,0.0089,0.0027,-0.0071,-0.0171,-0.0171,-0.026,-0.0282,-0.0254,-0.0252,-0.0277,-0.0276,-0.0275,-0.0275,-0.0275,-0.0274,0,0.0088,0.0096,0.0122,0.0146,0.0161,0.0188,0.0231,0.0257,0.027,0.0303,0.0305,0.0267,0.0191,0.008,-0.005,-0.0133,-0.0239,-0.0281,-0.0231,-0.0251,-0.0316,-0.0312,-0.0352,-0.0352,-0.0353,-0.0353,-0.0353,0,0.0094,0.0109,0.0148,0.0171,0.0183,0.0224,0.0258,0.0286,0.0316,0.0347,0.0364,0.0314,0.0269,0.0102,-0.0028,-0.0208,-0.0243,-0.0302,-0.0321,-0.0305,-0.0323,-0.0319,-0.0316,-0.0354,-0.0354,-0.0354,-0.0354,0,0.0106,0.012,0.0143,0.0192,0.0229,0.0276,0.0323,0.0354,0.0392,0.0408,0.0418,0.0338,0.0256,0.0114,-0.002,-0.0156,-0.0264,-0.0306,-0.0307,-0.0325,-0.0308,-0.0324,-0.0321,-0.0355,-0.0355,-0.0355,-0.0355,0,0.0117,0.0134,0.0164,0.0207,0.0258,0.0306,0.0336,0.0375,0.0411,0.0447,0.0449,0.0366,0.0322,0.0141,0.0015,-0.0111,-0.0157,-0.0215,-0.0221,-0.0222,-0.0173,-0.0131,-0.0138,0,0,0,0,0,0.0123,0.0134,0.0174,0.0217,0.0269,0.0294,0.0368,0.0395,0.0438,0.0454,0.0455,0.038,0.0218,0.0152,0.0025,-0.0019,-0.0197,-0.0175,-0.0271,-0.0362,-0.036,-0.0326,0,0,0,0,0,0,0.0122,0.0152,0.0166,0.0215,0.024,0.0299,0.0344,0.038,0.039,0.0422,0.0344,0.0323,0.0166,0.0282,0.0012,-0.0025,-0.0108,-0.0245,-0.0248,-0.0363,-0.0361,-0.036,-0.0324,0,0,0,0,0]}]]